Year,Month,Day,Hour,Minute,Value (Times are PST for temperature in C)
2014,09,14,00,00,11.30
2014,09,14,00,01,11.30
2014,09,14,00,02,11.30
2014,09,14,00,03,11.20
2014,09,14,00,04,11.20
2014,09,14,00,05,11.20
2014,09,14,00,06,11.20
2014,09,14,00,07,11.20
2014,09,14,00,08,11.20
2014,09,14,00,09,11.20
2014,09,14,00,10,11.10
2014,09,14,00,11,11.10
2014,09,14,00,12,11.10
2014,09,14,00,13,11.10
2014,09,14,00,14,11.00
2014,09,14,00,15,11.00
2014,09,14,00,16,11.00
2014,09,14,00,17,10.90
2014,09,14,00,18,10.90
2014,09,14,00,19,10.90
2014,09,14,00,20,10.90
2014,09,14,00,21,10.90
2014,09,14,00,22,10.90
2014,09,14,00,23,10.90
2014,09,14,00,24,10.80
2014,09,14,00,25,10.80
2014,09,14,00,26,10.80
2014,09,14,00,27,10.80
2014,09,14,00,28,10.80
2014,09,14,00,29,10.80
2014,09,14,00,30,10.80
2014,09,14,00,31,10.80
2014,09,14,00,32,10.80
2014,09,14,00,33,10.80
2014,09,14,00,34,10.80
2014,09,14,00,35,10.70
2014,09,14,00,36,10.70
2014,09,14,00,37,10.70
2014,09,14,00,38,10.70
2014,09,14,00,39,10.70
2014,09,14,00,40,10.60
2014,09,14,00,41,10.60
2014,09,14,00,42,10.60
2014,09,14,00,43,10.60
2014,09,14,00,44,10.60
2014,09,14,00,45,10.60
2014,09,14,00,46,10.50
2014,09,14,00,47,10.50
2014,09,14,00,48,10.50
2014,09,14,00,49,10.50
2014,09,14,00,50,10.40
2014,09,14,00,51,10.40
2014,09,14,00,52,10.40
2014,09,14,00,53,10.40
2014,09,14,00,54,10.40
2014,09,14,00,55,10.30
2014,09,14,00,56,10.30
2014,09,14,00,57,10.30
2014,09,14,00,58,10.30
2014,09,14,00,59,10.30
2014,09,14,01,00,10.20
2014,09,14,01,01,10.20
2014,09,14,01,02,10.20
2014,09,14,01,03,10.20
2014,09,14,01,04,10.20
2014,09,14,01,05,10.10
2014,09,14,01,06,10.10
2014,09,14,01,07,10.10
2014,09,14,01,08,10.10
2014,09,14,01,09,10.10
2014,09,14,01,10,10.10
2014,09,14,01,11,10.10
2014,09,14,01,12,10.10
2014,09,14,01,13,10.10
2014,09,14,01,14,10.10
2014,09,14,01,15,10.00
2014,09,14,01,16,10.00
2014,09,14,01,17,10.00
2014,09,14,01,18,9.90
2014,09,14,01,19,9.90
2014,09,14,01,20,9.90
2014,09,14,01,21,9.90
2014,09,14,01,22,9.90
2014,09,14,01,23,9.90
2014,09,14,01,24,9.90
2014,09,14,01,25,9.80
2014,09,14,01,26,9.80
2014,09,14,01,27,9.80
2014,09,14,01,28,9.80
2014,09,14,01,29,9.80
2014,09,14,01,30,9.80
2014,09,14,01,31,9.80
2014,09,14,01,32,9.80
2014,09,14,01,33,9.80
2014,09,14,01,34,9.80
2014,09,14,01,35,9.70
2014,09,14,01,36,9.70
2014,09,14,01,37,9.70
2014,09,14,01,38,9.70
2014,09,14,01,39,9.70
2014,09,14,01,40,9.70
2014,09,14,01,41,9.60
2014,09,14,01,42,9.60
2014,09,14,01,43,9.60
2014,09,14,01,44,9.60
2014,09,14,01,45,9.60
2014,09,14,01,46,9.50
2014,09,14,01,47,9.50
2014,09,14,01,48,9.50
2014,09,14,01,49,9.40
2014,09,14,01,50,9.40
2014,09,14,01,51,9.40
2014,09,14,01,52,9.40
2014,09,14,01,53,9.40
2014,09,14,01,54,9.40
2014,09,14,01,55,9.40
2014,09,14,01,56,9.40
2014,09,14,01,57,9.40
2014,09,14,01,58,9.30
2014,09,14,01,59,9.30
2014,09,14,02,00,9.30
2014,09,14,02,01,9.30
2014,09,14,02,02,9.30
2014,09,14,02,03,9.30
2014,09,14,02,04,9.30
2014,09,14,02,05,9.30
2014,09,14,02,06,9.30
2014,09,14,02,07,9.30
2014,09,14,02,08,9.30
2014,09,14,02,09,9.30
2014,09,14,02,10,9.30
2014,09,14,02,11,9.30
2014,09,14,02,12,9.30
2014,09,14,02,13,9.30
2014,09,14,02,14,9.20
2014,09,14,02,15,9.20
2014,09,14,02,16,9.20
2014,09,14,02,17,9.20
2014,09,14,02,18,9.20
2014,09,14,02,19,9.10
2014,09,14,02,20,9.10
2014,09,14,02,21,9.10
2014,09,14,02,22,9.10
2014,09,14,02,23,9.10
2014,09,14,02,24,9.10
2014,09,14,02,25,9.10
2014,09,14,02,26,9.00
2014,09,14,02,27,9.00
2014,09,14,02,28,9.00
2014,09,14,02,29,9.00
2014,09,14,02,30,9.00
2014,09,14,02,31,8.90
2014,09,14,02,32,8.90
2014,09,14,02,33,8.90
2014,09,14,02,34,8.90
2014,09,14,02,35,8.90
2014,09,14,02,36,8.90
2014,09,14,02,37,8.90
2014,09,14,02,38,8.90
2014,09,14,02,39,8.90
2014,09,14,02,40,8.80
2014,09,14,02,41,8.80
2014,09,14,02,42,8.80
2014,09,14,02,43,8.80
2014,09,14,02,44,8.80
2014,09,14,02,45,8.80
2014,09,14,02,46,8.80
2014,09,14,02,47,8.80
2014,09,14,02,48,8.80
2014,09,14,02,49,8.80
2014,09,14,02,50,8.80
2014,09,14,02,51,8.80
2014,09,14,02,52,8.80
2014,09,14,02,53,8.80
2014,09,14,02,54,8.80
2014,09,14,02,55,8.80
2014,09,14,02,56,8.80
2014,09,14,02,57,8.80
2014,09,14,02,58,8.80
2014,09,14,02,59,8.70
2014,09,14,03,00,8.70
2014,09,14,03,01,8.70
2014,09,14,03,02,8.70
2014,09,14,03,03,8.70
2014,09,14,03,04,8.60
2014,09,14,03,05,8.60
2014,09,14,03,06,8.60
2014,09,14,03,07,8.60
2014,09,14,03,08,8.60
2014,09,14,03,09,8.60
2014,09,14,03,10,8.50
2014,09,14,03,11,8.50
2014,09,14,03,12,8.50
2014,09,14,03,13,8.50
2014,09,14,03,14,8.50
2014,09,14,03,15,8.40
2014,09,14,03,16,8.40
2014,09,14,03,17,8.40
2014,09,14,03,18,8.40
2014,09,14,03,19,8.40
2014,09,14,03,20,8.40
2014,09,14,03,21,8.40
2014,09,14,03,22,8.40
2014,09,14,03,23,8.40
2014,09,14,03,24,8.40
2014,09,14,03,25,8.40
2014,09,14,03,26,8.40
2014,09,14,03,27,8.40
2014,09,14,03,28,8.40
2014,09,14,03,29,8.30
2014,09,14,03,30,8.30
2014,09,14,03,31,8.30
2014,09,14,03,32,8.30
2014,09,14,03,33,8.30
2014,09,14,03,34,8.30
2014,09,14,03,35,8.20
2014,09,14,03,36,8.20
2014,09,14,03,37,8.20
2014,09,14,03,38,8.20
2014,09,14,03,39,8.20
2014,09,14,03,40,8.20
2014,09,14,03,41,8.20
2014,09,14,03,42,8.20
2014,09,14,03,43,8.20
2014,09,14,03,44,8.20
2014,09,14,03,45,8.20
2014,09,14,03,46,8.20
2014,09,14,03,47,8.20
2014,09,14,03,48,8.20
2014,09,14,03,49,8.10
2014,09,14,03,50,8.10
2014,09,14,03,51,8.10
2014,09,14,03,52,8.10
2014,09,14,03,53,8.10
2014,09,14,03,54,8.10
2014,09,14,03,55,8.10
2014,09,14,03,56,8.00
2014,09,14,03,57,8.00
2014,09,14,03,58,8.00
2014,09,14,03,59,8.00
2014,09,14,04,00,8.00
2014,09,14,04,01,7.90
2014,09,14,04,02,7.90
2014,09,14,04,03,7.90
2014,09,14,04,04,7.90
2014,09,14,04,05,7.90
2014,09,14,04,06,7.90
2014,09,14,04,07,7.90
2014,09,14,04,08,7.80
2014,09,14,04,09,7.80
2014,09,14,04,10,7.80
2014,09,14,04,11,7.80
2014,09,14,04,12,7.80
2014,09,14,04,13,7.80
2014,09,14,04,14,7.70
2014,09,14,04,15,7.70
2014,09,14,04,16,7.70
2014,09,14,04,17,7.70
2014,09,14,04,18,7.70
2014,09,14,04,19,7.70
2014,09,14,04,20,7.70
2014,09,14,04,21,7.70
2014,09,14,04,22,7.70
2014,09,14,04,23,7.70
2014,09,14,04,24,7.70
2014,09,14,04,25,7.70
2014,09,14,04,26,7.70
2014,09,14,04,27,7.60
2014,09,14,04,28,7.60
2014,09,14,04,29,7.60
2014,09,14,04,30,7.60
2014,09,14,04,31,7.60
2014,09,14,04,32,7.60
2014,09,14,04,33,7.60
2014,09,14,04,34,7.60
2014,09,14,04,35,7.60
2014,09,14,04,36,7.50
2014,09,14,04,37,7.50
2014,09,14,04,38,7.50
2014,09,14,04,39,7.50
2014,09,14,04,40,7.50
2014,09,14,04,41,7.40
2014,09,14,04,42,7.40
2014,09,14,04,43,7.40
2014,09,14,04,44,7.40
2014,09,14,04,45,7.40
2014,09,14,04,46,7.40
2014,09,14,04,47,7.40
2014,09,14,04,48,7.40
2014,09,14,04,49,7.40
2014,09,14,04,50,7.40
2014,09,14,04,51,7.40
2014,09,14,04,52,7.30
2014,09,14,04,53,7.30
2014,09,14,04,54,7.30
2014,09,14,04,55,7.30
2014,09,14,04,56,7.30
2014,09,14,04,57,7.30
2014,09,14,04,58,7.30
2014,09,14,04,59,7.30
2014,09,14,05,00,7.30
2014,09,14,05,01,7.30
2014,09,14,05,02,7.30
2014,09,14,05,03,7.30
2014,09,14,05,04,7.30
2014,09,14,05,05,7.20
2014,09,14,05,06,7.20
2014,09,14,05,07,7.20
2014,09,14,05,08,7.20
2014,09,14,05,09,7.20
2014,09,14,05,10,7.20
2014,09,14,05,11,7.20
2014,09,14,05,12,7.20
2014,09,14,05,13,7.10
2014,09,14,05,14,7.10
2014,09,14,05,15,7.10
2014,09,14,05,16,7.10
2014,09,14,05,17,7.10
2014,09,14,05,18,7.10
2014,09,14,05,19,7.10
2014,09,14,05,20,7.10
2014,09,14,05,21,7.10
2014,09,14,05,22,7.10
2014,09,14,05,23,7.10
2014,09,14,05,24,7.10
2014,09,14,05,25,7.10
2014,09,14,05,26,7.10
2014,09,14,05,27,7.10
2014,09,14,05,28,7.00
2014,09,14,05,29,7.00
2014,09,14,05,30,7.00
2014,09,14,05,31,7.00
2014,09,14,05,32,7.00
2014,09,14,05,33,6.90
2014,09,14,05,34,6.90
2014,09,14,05,35,6.90
2014,09,14,05,36,6.90
2014,09,14,05,37,6.90
2014,09,14,05,38,6.90
2014,09,14,05,39,6.90
2014,09,14,05,40,6.90
2014,09,14,05,41,6.90
2014,09,14,05,42,6.90
2014,09,14,05,43,6.90
2014,09,14,05,44,6.90
2014,09,14,05,45,6.90
2014,09,14,05,46,6.90
2014,09,14,05,47,6.90
2014,09,14,05,48,6.90
2014,09,14,05,49,6.80
2014,09,14,05,50,6.80
2014,09,14,05,51,6.80
2014,09,14,05,52,6.80
2014,09,14,05,53,6.80
2014,09,14,05,54,6.80
2014,09,14,05,55,6.80
2014,09,14,05,56,6.80
2014,09,14,05,57,6.80
2014,09,14,05,58,6.80
2014,09,14,05,59,6.70
2014,09,14,06,00,6.70
2014,09,14,06,01,6.70
2014,09,14,06,02,6.70
2014,09,14,06,03,6.70
2014,09,14,06,04,6.70
2014,09,14,06,05,6.70
2014,09,14,06,06,6.70
2014,09,14,06,07,6.70
2014,09,14,06,08,6.70
2014,09,14,06,09,6.70
2014,09,14,06,10,6.70
2014,09,14,06,11,6.70
2014,09,14,06,12,6.60
2014,09,14,06,13,6.60
2014,09,14,06,14,6.60
2014,09,14,06,15,6.60
2014,09,14,06,16,6.60
2014,09,14,06,17,6.60
2014,09,14,06,18,6.60
2014,09,14,06,19,6.60
2014,09,14,06,20,6.60
2014,09,14,06,21,6.60
2014,09,14,06,22,6.60
2014,09,14,06,23,6.60
2014,09,14,06,24,6.60
2014,09,14,06,25,6.60
2014,09,14,06,26,6.50
2014,09,14,06,27,6.50
2014,09,14,06,28,6.50
2014,09,14,06,29,6.50
2014,09,14,06,30,6.50
2014,09,14,06,31,6.50
2014,09,14,06,32,6.50
2014,09,14,06,33,6.50
2014,09,14,06,34,6.50
2014,09,14,06,35,6.40
2014,09,14,06,36,6.40
2014,09,14,06,37,6.40
2014,09,14,06,38,6.40
2014,09,14,06,39,6.40
2014,09,14,06,40,6.40
2014,09,14,06,41,6.40
2014,09,14,06,42,6.40
2014,09,14,06,43,6.40
2014,09,14,06,44,6.40
2014,09,14,06,45,6.40
2014,09,14,06,46,6.40
2014,09,14,06,47,6.30
2014,09,14,06,48,6.30
2014,09,14,06,49,6.30
2014,09,14,06,50,6.30
2014,09,14,06,51,6.30
2014,09,14,06,52,6.30
2014,09,14,06,53,6.30
2014,09,14,06,54,6.30
2014,09,14,06,55,6.30
2014,09,14,06,56,6.20
2014,09,14,06,57,6.20
2014,09,14,06,58,6.20
2014,09,14,06,59,6.20
2014,09,14,07,00,6.20
2014,09,14,07,01,6.20
2014,09,14,07,02,6.20
2014,09,14,07,03,6.20
2014,09,14,07,04,6.20
2014,09,14,07,05,6.20
2014,09,14,07,06,6.20
2014,09,14,07,07,6.20
2014,09,14,07,08,6.20
2014,09,14,07,09,6.20
2014,09,14,07,10,6.20
2014,09,14,07,11,6.20
2014,09,14,07,12,6.20
2014,09,14,07,13,6.20
2014,09,14,07,14,6.20
2014,09,14,07,15,6.20
2014,09,14,07,16,6.20
2014,09,14,07,17,6.20
2014,09,14,07,18,6.20
2014,09,14,07,19,6.20
2014,09,14,07,20,6.20
2014,09,14,07,21,6.20
2014,09,14,07,22,6.20
2014,09,14,07,23,6.20
2014,09,14,07,24,6.20
2014,09,14,07,25,6.20
2014,09,14,07,26,6.20
2014,09,14,07,27,6.20
2014,09,14,07,28,6.20
2014,09,14,07,29,6.20
2014,09,14,07,30,6.20
2014,09,14,07,31,6.20
2014,09,14,07,32,6.20
2014,09,14,07,33,6.20
2014,09,14,07,34,6.20
2014,09,14,07,35,6.20
2014,09,14,07,36,6.20
2014,09,14,07,37,6.20
2014,09,14,07,38,6.20
2014,09,14,07,39,6.20
2014,09,14,07,40,6.20
2014,09,14,07,41,6.20
2014,09,14,07,42,6.20
2014,09,14,07,43,6.20
2014,09,14,07,44,6.20
2014,09,14,07,45,6.10
2014,09,14,07,46,6.10
2014,09,14,07,47,6.10
2014,09,14,07,48,6.10
2014,09,14,07,49,6.10
2014,09,14,07,50,6.10
2014,09,14,07,51,6.10
2014,09,14,07,52,6.10
2014,09,14,07,53,6.10
2014,09,14,07,54,6.10
2014,09,14,07,55,6.10
2014,09,14,07,56,6.10
2014,09,14,07,57,6.10
2014,09,14,07,58,6.10
2014,09,14,07,59,6.20
2014,09,14,08,00,6.20
2014,09,14,08,01,6.20
2014,09,14,08,02,6.20
2014,09,14,08,03,6.20
2014,09,14,08,04,6.20
2014,09,14,08,05,6.20
2014,09,14,08,06,6.20
2014,09,14,08,07,6.20
2014,09,14,08,08,6.20
2014,09,14,08,09,6.20
2014,09,14,08,10,6.20
2014,09,14,08,11,6.20
2014,09,14,08,12,6.20
2014,09,14,08,13,6.20
2014,09,14,08,14,6.20
2014,09,14,08,15,6.20
2014,09,14,08,16,6.20
2014,09,14,08,17,6.20
2014,09,14,08,18,6.30
2014,09,14,08,19,6.30
2014,09,14,08,20,6.30
2014,09,14,08,21,6.40
2014,09,14,08,22,6.40
2014,09,14,08,23,6.50
2014,09,14,08,24,6.60
2014,09,14,08,25,6.70
2014,09,14,08,26,6.70
2014,09,14,08,27,6.80
2014,09,14,08,28,6.90
2014,09,14,08,29,7.00
2014,09,14,08,30,7.20
2014,09,14,08,31,7.30
2014,09,14,08,32,7.50
2014,09,14,08,33,7.60
2014,09,14,08,34,7.80
2014,09,14,08,35,8.00
2014,09,14,08,36,8.10
2014,09,14,08,37,8.30
2014,09,14,08,38,8.40
2014,09,14,08,39,8.60
2014,09,14,08,40,8.80
2014,09,14,08,41,8.90
2014,09,14,08,42,9.10
2014,09,14,08,43,9.20
2014,09,14,08,44,9.30
2014,09,14,08,45,9.40
2014,09,14,08,46,9.50
2014,09,14,08,47,9.70
2014,09,14,08,48,9.70
2014,09,14,08,49,9.80
2014,09,14,08,50,9.90
2014,09,14,08,51,10.00
2014,09,14,08,52,10.10
2014,09,14,08,53,10.10
2014,09,14,08,54,10.20
2014,09,14,08,55,10.20
2014,09,14,08,56,10.30
2014,09,14,08,57,10.30
2014,09,14,08,58,10.40
2014,09,14,08,59,10.40
2014,09,14,09,00,10.50
2014,09,14,09,01,10.60
2014,09,14,09,02,10.60
2014,09,14,09,03,10.70
2014,09,14,09,04,10.70
2014,09,14,09,05,10.80
2014,09,14,09,06,10.90
2014,09,14,09,07,10.90
2014,09,14,09,08,11.00
2014,09,14,09,09,11.10
2014,09,14,09,10,11.10
2014,09,14,09,11,11.20
2014,09,14,09,12,11.30
2014,09,14,09,13,11.30
2014,09,14,09,14,11.30
2014,09,14,09,15,11.40
2014,09,14,09,16,11.40
2014,09,14,09,17,11.40
2014,09,14,09,18,11.50
2014,09,14,09,19,11.50
2014,09,14,09,20,11.60
2014,09,14,09,21,11.60
2014,09,14,09,22,11.60
2014,09,14,09,23,11.70
2014,09,14,09,24,11.70
2014,09,14,09,25,11.80
2014,09,14,09,26,11.90
2014,09,14,09,27,11.90
2014,09,14,09,28,12.00
2014,09,14,09,29,12.00
2014,09,14,09,30,12.10
2014,09,14,09,31,12.20
2014,09,14,09,32,12.20
2014,09,14,09,33,12.30
2014,09,14,09,34,12.30
2014,09,14,09,35,12.40
2014,09,14,09,36,12.50
2014,09,14,09,37,12.50
2014,09,14,09,38,12.60
2014,09,14,09,39,12.70
2014,09,14,09,40,12.80
2014,09,14,09,41,12.80
2014,09,14,09,42,12.90
2014,09,14,09,43,13.00
2014,09,14,09,44,13.10
2014,09,14,09,45,13.20
2014,09,14,09,46,13.20
2014,09,14,09,47,13.30
2014,09,14,09,48,13.30
2014,09,14,09,49,13.40
2014,09,14,09,50,13.50
2014,09,14,09,51,13.60
2014,09,14,09,52,13.60
2014,09,14,09,53,13.70
2014,09,14,09,54,13.80
2014,09,14,09,55,13.90
2014,09,14,09,56,13.90
2014,09,14,09,57,14.00
2014,09,14,09,58,14.00
2014,09,14,09,59,14.10
2014,09,14,10,00,14.10
2014,09,14,10,01,14.20
2014,09,14,10,02,14.20
2014,09,14,10,03,14.30
2014,09,14,10,04,14.40
2014,09,14,10,05,14.40
2014,09,14,10,06,14.50
2014,09,14,10,07,14.60
2014,09,14,10,08,14.70
2014,09,14,10,09,14.80
2014,09,14,10,10,14.90
2014,09,14,10,11,15.00
2014,09,14,10,12,15.10
2014,09,14,10,13,15.20
2014,09,14,10,14,15.20
2014,09,14,10,15,15.30
2014,09,14,10,16,15.30
2014,09,14,10,17,15.40
2014,09,14,10,18,15.40
2014,09,14,10,19,15.50
2014,09,14,10,20,15.50
2014,09,14,10,21,15.60
2014,09,14,10,22,15.60
2014,09,14,10,23,15.70
2014,09,14,10,24,15.80
2014,09,14,10,25,15.80
2014,09,14,10,26,15.80
2014,09,14,10,27,15.90
2014,09,14,10,28,16.00
2014,09,14,10,29,16.10
2014,09,14,10,30,16.20
2014,09,14,10,31,16.20
2014,09,14,10,32,16.30
2014,09,14,10,33,16.30
2014,09,14,10,34,16.40
2014,09,14,10,35,16.50
2014,09,14,10,36,16.60
2014,09,14,10,37,16.60
2014,09,14,10,38,16.70
2014,09,14,10,39,16.70
2014,09,14,10,40,16.80
2014,09,14,10,41,16.80
2014,09,14,10,42,16.90
2014,09,14,10,43,16.90
2014,09,14,10,44,17.00
2014,09,14,10,45,17.10
2014,09,14,10,46,17.20
2014,09,14,10,47,17.30
2014,09,14,10,48,17.40
2014,09,14,10,49,17.50
2014,09,14,10,50,17.60
2014,09,14,10,51,17.60
2014,09,14,10,52,17.70
2014,09,14,10,53,17.70
2014,09,14,10,54,17.80
2014,09,14,10,55,17.90
2014,09,14,10,56,17.90
2014,09,14,10,57,17.90
2014,09,14,10,58,18.00
2014,09,14,10,59,18.00
2014,09,14,11,00,18.10
2014,09,14,11,01,18.20
2014,09,14,11,02,18.30
2014,09,14,11,03,18.40
2014,09,14,11,04,18.50
2014,09,14,11,05,18.70
2014,09,14,11,06,18.70
2014,09,14,11,07,18.80
2014,09,14,11,08,18.80
2014,09,14,11,09,18.80
2014,09,14,11,10,18.90
2014,09,14,11,11,19.00
2014,09,14,11,12,19.10
2014,09,14,11,13,19.20
2014,09,14,11,14,19.30
2014,09,14,11,15,19.40
2014,09,14,11,16,19.60
2014,09,14,11,17,19.60
2014,09,14,11,18,19.70
2014,09,14,11,19,19.80
2014,09,14,11,20,19.90
2014,09,14,11,21,20.00
2014,09,14,11,22,20.00
2014,09,14,11,23,20.10
2014,09,14,11,24,20.20
2014,09,14,11,25,20.30
2014,09,14,11,26,20.40
2014,09,14,11,27,20.50
2014,09,14,11,28,20.60
2014,09,14,11,29,20.70
2014,09,14,11,30,20.80
2014,09,14,11,31,20.90
2014,09,14,11,32,21.00
2014,09,14,11,33,21.20
2014,09,14,11,34,21.30
2014,09,14,11,35,21.30
2014,09,14,11,36,21.30
2014,09,14,11,37,21.40
2014,09,14,11,38,21.40
2014,09,14,11,39,21.40
2014,09,14,11,40,21.40
2014,09,14,11,41,21.40
2014,09,14,11,42,21.50
2014,09,14,11,43,21.50
2014,09,14,11,44,21.60
2014,09,14,11,45,21.70
2014,09,14,11,46,21.80
2014,09,14,11,47,21.90
2014,09,14,11,48,21.90
2014,09,14,11,49,22.00
2014,09,14,11,50,22.00
2014,09,14,11,51,22.00
2014,09,14,11,52,22.00
2014,09,14,11,53,22.10
2014,09,14,11,54,22.10
2014,09,14,11,55,22.20
2014,09,14,11,56,22.20
2014,09,14,11,57,22.30
2014,09,14,11,58,22.40
2014,09,14,11,59,22.40
2014,09,14,12,00,22.50
2014,09,14,12,01,22.60
2014,09,14,12,02,22.60
2014,09,14,12,03,22.60
2014,09,14,12,04,22.60
2014,09,14,12,05,22.50
2014,09,14,12,06,22.50
2014,09,14,12,07,22.40
2014,09,14,12,08,22.50
2014,09,14,12,09,22.50
2014,09,14,12,10,22.50
2014,09,14,12,11,22.50
2014,09,14,12,12,22.50
2014,09,14,12,13,22.50
2014,09,14,12,14,22.50
2014,09,14,12,15,22.50
2014,09,14,12,16,22.60
2014,09,14,12,17,22.60
2014,09,14,12,18,22.70
2014,09,14,12,19,22.70
2014,09,14,12,20,22.70
2014,09,14,12,21,22.70
2014,09,14,12,22,22.80
2014,09,14,12,23,22.80
2014,09,14,12,24,22.80
2014,09,14,12,25,22.90
2014,09,14,12,26,23.00
2014,09,14,12,27,23.00
2014,09,14,12,28,23.10
2014,09,14,12,29,23.20
2014,09,14,12,30,23.20
2014,09,14,12,31,23.30
2014,09,14,12,32,23.30
2014,09,14,12,33,23.40
2014,09,14,12,34,23.40
2014,09,14,12,35,23.50
2014,09,14,12,36,23.60
2014,09,14,12,37,23.60
2014,09,14,12,38,23.70
2014,09,14,12,39,23.80
2014,09,14,12,40,23.80
2014,09,14,12,41,23.90
2014,09,14,12,42,24.00
2014,09,14,12,43,24.10
2014,09,14,12,44,24.10
2014,09,14,12,45,24.20
2014,09,14,12,46,24.20
2014,09,14,12,47,24.30
2014,09,14,12,48,24.40
2014,09,14,12,49,24.50
2014,09,14,12,50,24.60
2014,09,14,12,51,24.60
2014,09,14,12,52,24.70
2014,09,14,12,53,24.80
2014,09,14,12,54,24.80
2014,09,14,12,55,24.90
2014,09,14,12,56,25.00
2014,09,14,12,57,25.10
2014,09,14,12,58,25.20
2014,09,14,12,59,25.30
2014,09,14,13,00,25.30
2014,09,14,13,01,25.40
2014,09,14,13,02,25.50
2014,09,14,13,03,25.60
2014,09,14,13,04,25.70
2014,09,14,13,05,25.90
2014,09,14,13,06,25.90
2014,09,14,13,07,26.00
2014,09,14,13,08,26.20
2014,09,14,13,09,26.30
2014,09,14,13,10,26.40
2014,09,14,13,11,26.50
2014,09,14,13,12,26.60
2014,09,14,13,13,26.60
2014,09,14,13,14,26.60
2014,09,14,13,15,26.60
2014,09,14,13,16,26.60
2014,09,14,13,17,26.50
2014,09,14,13,18,26.50
2014,09,14,13,19,26.50
2014,09,14,13,20,26.50
2014,09,14,13,21,26.50
2014,09,14,13,22,26.60
2014,09,14,13,23,26.60
2014,09,14,13,24,26.70
2014,09,14,13,25,26.80
2014,09,14,13,26,26.90
2014,09,14,13,27,26.90
2014,09,14,13,28,26.90
2014,09,14,13,29,27.00
2014,09,14,13,30,27.00
2014,09,14,13,31,27.00
2014,09,14,13,32,27.00
2014,09,14,13,33,27.00
2014,09,14,13,34,27.10
2014,09,14,13,35,27.10
2014,09,14,13,36,27.20
2014,09,14,13,37,27.20
2014,09,14,13,38,27.20
2014,09,14,13,39,27.20
2014,09,14,13,40,27.20
2014,09,14,13,41,27.30
2014,09,14,13,42,27.30
2014,09,14,13,43,27.40
2014,09,14,13,44,27.40
2014,09,14,13,45,27.60
2014,09,14,13,46,27.70
2014,09,14,13,47,27.70
2014,09,14,13,48,27.80
2014,09,14,13,49,27.80
2014,09,14,13,50,27.80
2014,09,14,13,51,27.90
2014,09,14,13,52,27.90
2014,09,14,13,53,27.90
2014,09,14,13,54,27.90
2014,09,14,13,55,28.00
2014,09,14,13,56,28.00
2014,09,14,13,57,28.10
2014,09,14,13,58,28.20
2014,09,14,13,59,28.20
2014,09,14,14,00,28.20
2014,09,14,14,01,28.20
2014,09,14,14,02,28.20
2014,09,14,14,03,28.20
2014,09,14,14,04,28.30
2014,09,14,14,05,28.40
2014,09,14,14,06,28.40
2014,09,14,14,07,28.50
2014,09,14,14,08,28.60
2014,09,14,14,09,28.70
2014,09,14,14,10,28.80
2014,09,14,14,11,28.80
2014,09,14,14,12,28.90
2014,09,14,14,13,28.90
2014,09,14,14,14,29.00
2014,09,14,14,15,29.10
2014,09,14,14,16,29.10
2014,09,14,14,17,29.20
2014,09,14,14,18,29.20
2014,09,14,14,19,29.20
2014,09,14,14,20,29.30
2014,09,14,14,21,29.30
2014,09,14,14,22,29.30
2014,09,14,14,23,29.30
2014,09,14,14,24,29.20
2014,09,14,14,25,29.20
2014,09,14,14,26,29.20
2014,09,14,14,27,29.20
2014,09,14,14,28,29.20
2014,09,14,14,29,29.10
2014,09,14,14,30,29.10
2014,09,14,14,31,29.10
2014,09,14,14,32,29.20
2014,09,14,14,33,29.20
2014,09,14,14,34,29.20
2014,09,14,14,35,29.20
2014,09,14,14,36,29.30
2014,09,14,14,37,29.30
2014,09,14,14,38,29.40
2014,09,14,14,39,29.40
2014,09,14,14,40,29.40
2014,09,14,14,41,29.40
2014,09,14,14,42,29.40
2014,09,14,14,43,29.40
2014,09,14,14,44,29.40
2014,09,14,14,45,29.40
2014,09,14,14,46,29.40
2014,09,14,14,47,29.40
2014,09,14,14,48,29.40
2014,09,14,14,49,29.40
2014,09,14,14,50,29.40
2014,09,14,14,51,29.40
2014,09,14,14,52,29.40
2014,09,14,14,53,29.40
2014,09,14,14,54,29.40
2014,09,14,14,55,29.40
2014,09,14,14,56,29.40
2014,09,14,14,57,29.30
2014,09,14,14,58,29.30
2014,09,14,14,59,29.40
2014,09,14,15,00,29.40
2014,09,14,15,01,29.30
2014,09,14,15,02,29.40
2014,09,14,15,03,29.40
2014,09,14,15,04,29.40
2014,09,14,15,05,29.30
2014,09,14,15,06,29.30
2014,09,14,15,07,29.30
2014,09,14,15,08,29.30
2014,09,14,15,09,29.30
2014,09,14,15,10,29.30
2014,09,14,15,11,29.30
2014,09,14,15,12,29.30
2014,09,14,15,13,29.30
2014,09,14,15,14,29.30
2014,09,14,15,15,29.30
2014,09,14,15,16,29.30
2014,09,14,15,17,29.30
2014,09,14,15,18,29.30
2014,09,14,15,19,29.30
2014,09,14,15,20,29.30
2014,09,14,15,21,29.30
2014,09,14,15,22,29.30
2014,09,14,15,23,29.30
2014,09,14,15,24,29.30
2014,09,14,15,25,29.30
2014,09,14,15,26,29.20
2014,09,14,15,27,29.20
2014,09,14,15,28,29.20
2014,09,14,15,29,29.20
2014,09,14,15,30,29.20
2014,09,14,15,31,29.20
2014,09,14,15,32,29.20
2014,09,14,15,33,29.20
2014,09,14,15,34,29.20
2014,09,14,15,35,29.20
2014,09,14,15,36,29.10
2014,09,14,15,37,29.10
2014,09,14,15,38,29.10
2014,09,14,15,39,29.10
2014,09,14,15,40,29.10
2014,09,14,15,41,29.10
2014,09,14,15,42,29.10
2014,09,14,15,43,29.10
2014,09,14,15,44,29.20
2014,09,14,15,45,29.20
2014,09,14,15,46,29.20
2014,09,14,15,47,29.20
2014,09,14,15,48,29.20
2014,09,14,15,49,29.20
2014,09,14,15,50,29.20
2014,09,14,15,51,29.20
2014,09,14,15,52,29.20
2014,09,14,15,53,29.20
2014,09,14,15,54,29.20
2014,09,14,15,55,29.20
2014,09,14,15,56,29.20
2014,09,14,15,57,29.20
2014,09,14,15,58,29.20
2014,09,14,15,59,29.20
2014,09,14,16,00,29.20
2014,09,14,16,01,29.20
2014,09,14,16,02,29.20
2014,09,14,16,03,29.20
2014,09,14,16,04,29.20
2014,09,14,16,05,29.20
2014,09,14,16,06,29.20
2014,09,14,16,07,29.20
2014,09,14,16,08,29.20
2014,09,14,16,09,29.20
2014,09,14,16,10,29.20
2014,09,14,16,11,29.20
2014,09,14,16,12,29.20
2014,09,14,16,13,29.20
2014,09,14,16,14,29.20
2014,09,14,16,15,29.20
2014,09,14,16,16,29.10
2014,09,14,16,17,29.10
2014,09,14,16,18,29.10
2014,09,14,16,19,29.10
2014,09,14,16,20,29.10
2014,09,14,16,21,29.10
2014,09,14,16,22,29.10
2014,09,14,16,23,29.10
2014,09,14,16,24,29.00
2014,09,14,16,25,29.00
2014,09,14,16,26,29.00
2014,09,14,16,27,29.00
2014,09,14,16,28,29.00
2014,09,14,16,29,29.00
2014,09,14,16,30,29.00
2014,09,14,16,31,28.90
2014,09,14,16,32,28.90
2014,09,14,16,33,28.90
2014,09,14,16,34,28.90
2014,09,14,16,35,28.90
2014,09,14,16,36,28.90
2014,09,14,16,37,28.90
2014,09,14,16,38,28.90
2014,09,14,16,39,28.90
2014,09,14,16,40,28.80
2014,09,14,16,41,28.80
2014,09,14,16,42,28.80
2014,09,14,16,43,28.80
2014,09,14,16,44,28.80
2014,09,14,16,45,28.80
2014,09,14,16,46,28.80
2014,09,14,16,47,28.80
2014,09,14,16,48,28.80
2014,09,14,16,49,28.80
2014,09,14,16,50,28.70
2014,09,14,16,51,28.70
2014,09,14,16,52,28.70
2014,09,14,16,53,28.70
2014,09,14,16,54,28.70
2014,09,14,16,55,28.70
2014,09,14,16,56,28.70
2014,09,14,16,57,28.60
2014,09,14,16,58,28.60
2014,09,14,16,59,28.60
2014,09,14,17,00,28.60
2014,09,14,17,01,28.60
2014,09,14,17,02,28.60
2014,09,14,17,03,28.60
2014,09,14,17,04,28.60
2014,09,14,17,05,28.60
2014,09,14,17,06,28.60
2014,09,14,17,07,28.50
2014,09,14,17,08,28.50
2014,09,14,17,09,28.50
2014,09,14,17,10,28.40
2014,09,14,17,11,28.40
2014,09,14,17,12,28.40
2014,09,14,17,13,28.40
2014,09,14,17,14,28.30
2014,09,14,17,15,28.30
2014,09,14,17,16,28.30
2014,09,14,17,17,28.30
2014,09,14,17,18,28.30
2014,09,14,17,19,28.30
2014,09,14,17,20,28.30
2014,09,14,17,21,28.30
2014,09,14,17,22,28.30
2014,09,14,17,23,28.30
2014,09,14,17,24,28.30
2014,09,14,17,25,28.20
2014,09,14,17,26,28.20
2014,09,14,17,27,28.20
2014,09,14,17,28,28.10
2014,09,14,17,29,28.10
2014,09,14,17,30,28.10
2014,09,14,17,31,28.00
2014,09,14,17,32,28.00
2014,09,14,17,33,28.00
2014,09,14,17,34,28.00
2014,09,14,17,35,27.90
2014,09,14,17,36,27.90
2014,09,14,17,37,27.90
2014,09,14,17,38,27.90
2014,09,14,17,39,27.80